Location: *
(60.1759°S, 155.0663°W)
Time: 04:26:10
(UTC+00:00)

Cosmos 2278 - Pass Details

Date: 17 September 2019
Orbit: 840 x 853 km, 71.1° (Epoch: 17 October)

Event Time Altitude Azimuth Distance (km) Brightness Sun altitude
Rises 13:23:56 0° 221° (SW) 3,459 6.9 -21.8°
Reaches altitude 10° 13:26:25 10° 220° (SW) 2,517 6.1 -21.5°
Maximum altitude 13:32:14 88° 308° (NW) 870 3.7 -20.9°
Drops below altitude 10° 13:37:58 10° 37° (NE) 2,487 6.2 -20.4°
Sets 13:40:24 0° 36° (NE) 3,414 6.9 -20.1°
